GW0194 Weather Reports


Display with metric or nautical units.
time (UTC)temp
F
wind
direction
speed
MPH
gust
MPH
rain 1hr
in
rain 24hr
in
rain mn
in
humidity
%
barometer
mb
20260505051531 44 0 0.0 0.0 0.01 0.21 0.21 90 1011.9
20260505041530 46 0 0.0 1.0 0.00 0.20 0.20 90 1012.3
20260505040028 47 0 0.0 0.0 0.03 0.20 0.20 90 1012.4
20260505034530 47 0 0.0 0.0 0.10 0.20 0.20 89 1012.4
20260505033040 48 0 0.0 1.0 0.16 0.20 0.20 89 1012.5
20260505031528 48 0 0.0 2.0 0.19 0.20 0.20 88 1012.5
20260505030028 48 259 0.0 3.0 0.16 0.17 0.17 87 1012.2
20260505024551 49 0 0.0 5.0 0.10 0.10 0.10 86 1012.0
20260505023037 50 0 0.0 1.0 0.04 0.04 0.04 83 1011.8
20260505021544 50 0 0.0 0.0 0.01 0.01 0.01 74 1011.4
20260505020028 50 0 0.0 1.0 0.01 0.01 0.01 71 1011.4
20260505014529 50 43 1.0 4.0 0.00 0.00 0.00 72 1011.3
20260505013029 52 27 1.0 6.0 0.00 0.00 0.00 69 1011.0
20260505011539 54 91 1.0 7.0 0.00 0.00 0.00 61 1011.0
20260505010031 57 0 0.0 1.0 0.00 0.00 0.00 55 1010.5
20260505004538 57 0 0.0 1.0 0.00 0.00 0.00 52 1010.4
20260505003028 58 0 0.0 3.0 0.00 0.00 0.00 53 1010.3
20260505001528 58 30 1.0 6.0 0.00 0.00 0.00 55 1010.2
20260505000027 58 0 0.0 2.0 0.00 0.00 0.00 53 1010.0
20260504234530 58 0 0.0 1.0 0.00 0.00 0.00 56 1010.2
20260504233034 58 0 0.0 1.0 0.00 0.00 0.00 54 1010.2
20260504231530 57 271 0.0 1.0 0.00 0.00 0.00 57 1009.8
20260504230030 57 83 0.0 4.0 0.00 0.00 0.00 55 1010.1
20260504224529 58 300 0.0 7.0 0.00 0.00 0.00 54 1010.4
20260504223036 60 235 1.0 4.0 0.00 0.00 0.00 44 1010.5
20260504221535 61 262 1.0 4.0 0.00 0.00 0.00 43 1010.2
20260504220028 60 30 0.0 8.0 0.00 0.00 0.00 44 1009.3
20260504214529 61 34 4.0 10.0 0.00 0.00 0.00 45 1009.1
20260504213030 61 68 5.0 13.0 0.00 0.00 0.00 43 1009.2
20260504211531 62 24 5.0 21.0 0.00 0.00 0.00 42 1009.2
20260504210030 64 20 11.0 18.0 0.00 0.00 0.00 39 1009.2
20260504204541 69 38 3.0 12.0 0.00 0.00 0.00 29 1009.0
20260504203029 67 96 3.0 12.0 0.00 0.00 0.00 34 1008.5
20260504201529 66 212 4.0 12.0 0.00 0.00 0.00 36 1008.7
20260504200034 67 242 4.0 11.0 0.00 0.00 0.00 31 1009.1
20260504194537 72 234 3.0 10.0 0.00 0.00 0.00 22 1008.7
20260504193031 73 236 2.0 8.0 0.00 0.00 0.00 22 1008.4
20260504191530 74 0 2.0 5.0 0.00 0.00 0.00 22 1008.3
20260504190035 73 350 1.0 5.0 0.00 0.00 0.00 22 1008.2
20260504184535 72 333 1.0 7.0 0.00 0.00 0.00 23 1008.5
20260504183032 73 220 1.0 4.0 0.00 0.00 0.00 22 1008.9
20260504181530 73 336 2.0 6.0 0.00 0.00 0.00 24 1008.8
20260504180032 72 248 2.0 8.0 0.00 0.00 0.00 25 1009.0
20260504174530 71 212 3.0 12.0 0.00 0.00 0.00 26 1009.2
20260504173029 71 348 3.0 10.0 0.00 0.00 0.00 26 1009.4
20260504171533 70 304 1.0 7.0 0.00 0.00 0.00 27 1009.7
20260504081543 44 237 0.0 1.0 0.00 0.00 0.00 54 1011.2